#timestamp,LO_Frequency,Hit,StdDev 
1646384415.9,286046998.5,N
1646384435.7,286046999.5,N
1646384455.6,286046999.4,N
1646384475.4,286047001.2,N
1646384495.2,286047000.7,N
1646384515.1,286047000.0,N
1646384516.0,286047000.0,N
1646384535.8,286047000.6,N
1646384555.7,286047000.0,N
1646384575.5,286047002.5,N
1646384595.3,286047000.0,N
1646384615.2,286047000.2,N
1646384635.0,286047000.4,N
1646384635.9,286047000.4,N
1646384655.8,286047001.1,N
1646384675.6,286047004.4,Y
1646384695.4,286047001.6,P
1646384715.3,286047002.7,P
1646384735.1,286047004.1,P
1646384755.9,286047004.3,N
1646384775.7,286047002.8,N
1646384795.5,286047000.1,N
1646384815.4,286047000.2,N
1646384835.2,286047002.6,N
1646384855.0,286047002.3,N
1646384855.9,286047002.3,N
1646384875.8,286047002.8,N
1646384895.6,286047002.1,N
1646384915.5,286046999.9,N
1646384935.3,286047000.6,N
1646384955.1,286047002.8,N
1646384975.9,286047001.9,N
1646384995.7,286047000.2,N
1646385015.6,286047000.4,N
1646385035.4,286046999.8,N
1646385055.2,286047000.7,N
1646385075.1,286046999.9,N
1646385076.0,286046999.9,N
1646385095.8,286047001.7,N
1646385115.6,286047001.9,N
1646385135.5,286047000.1,N
1646385155.3,286046996.5,N
1646385175.2,286047000.7,N
1646385195.9,286047001.1,N
1646385215.7,286047002.6,N
1646385235.6,286047004.0,N
1646385255.4,286047004.1,N
1646385275.3,286047002.3,N
1646385295.1,286047003.8,N
1646385296.0,286047003.8,N
1646385315.8,286047004.1,N
1646385335.7,286047001.8,N
1646385355.5,286047000.4,N
1646385375.3,286047002.7,N
1646385395.2,286046998.7,N
1646385415.0,286046997.7,N
1646385415.9,286046997.7,N
1646385435.8,286046997.2,N
1646385455.6,286046996.5,N
1646385475.4,286047000.7,N
1646385495.3,286046999.7,N
1646385515.1,286047000.8,N
1646385535.8,286047000.8,N
1646385555.7,286046998.1,N
1646385575.5,286046998.6,N
1646385595.4,286046998.5,N
1646385615.2,286047002.3,N
1646385635.0,286047001.6,N
1646385635.9,286047001.6,N
1646385655.8,286047000.2,N
1646385675.6,286047000.6,N
1646385695.4,286047000.0,N
1646385715.3,286047001.0,N
1646385735.1,286047002.3,N
1646385755.9,286047002.5,N
1646385775.7,286047002.5,N
1646385795.5,286047000.2,N
1646385815.4,286047000.7,N
1646385835.2,286046999.8,N
1646385855.1,286047002.1,N
1646385856.0,286047002.1,N
1646385875.8,286046998.1,N
1646385895.6,286047000.6,N
1646385915.5,286047000.0,N
1646385935.3,286047001.9,N
1646385955.1,286047001.9,N
1646385975.9,286047000.4,N
1646385995.7,286047002.5,N
1646386015.6,286047002.7,N
1646386035.4,286047002.2,N
1646386055.2,286047001.8,N
1646386075.1,286047003.1,N
1646386076.0,286047003.1,N
1646386095.8,286047004.0,N
1646386115.7,286047002.5,N
1646386135.5,286047002.7,N
1646386155.3,286046999.7,N
1646386175.2,286047000.7,N
1646386195.0,286047002.6,N
1646386195.9,286047002.6,N
1646386215.8,286047004.4,Y
1646386235.6,286047000.0,P
1646386255.4,286047002.7,P
1646386275.3,286047000.1,N
1646386295.1,286047000.6,N
1646386315.8,286047002.0,N
1646386335.7,286047002.2,N
1646386355.5,286047001.8,N
1646386375.4,286047002.2,N
1646386395.2,286047002.5,N
1646386415.0,286047003.1,Y
1646386415.9,286047003.1,P
1646386435.8,286047000.3,N
1646386455.6,286046999.8,N
1646386475.5,286047004.2,Y
1646386495.3,286047001.8,P
1646386515.1,286047002.8,P
1646386535.9,286046999.7,N
1646386555.7,286047002.1,N
1646386575.5,286047000.6,N
1646386595.4,286047001.2,N
1646386615.2,286046999.9,N
1646386635.1,286047001.0,N
1646386636.0,286047001.0,N
1646386655.8,286046997.2,Y
1646386675.6,286046999.2,P
1646386695.5,286046998.5,N
1646386715.3,286046999.1,N
1646386735.2,286046999.4,N
1646386755.9,286046997.8,N
1646386775.7,286046995.7,Y
1646386795.6,286046996.6,P
1646386815.4,286046997.3,N
1646386835.3,286046997.7,N
1646386855.1,286046996.8,Y
1646386856.0,286046996.8,P
1646386875.8,286046999.7,N
1646386895.7,286047002.8,N
1646386915.5,286047004.2,N
1646386935.3,286047002.2,N
1646386955.2,286047000.1,N
1646386975.0,286047002.7,N
1646386975.9,286047002.7,N
1646386995.8,286047002.5,N
1646387015.6,286046999.7,N
1646387035.4,286047002.2,N
1646387055.3,286047003.5,N
1646387075.1,286047003.6,N
1646387095.9,286047002.6,N
1646387115.7,286047003.1,N
1646387135.5,286047004.1,N
1646387155.4,286047005.3,N
1646387175.2,286047002.9,N
1646387195.1,286047001.7,N
1646387196.0,286047001.7,N
1646387215.8,286047003.8,N
1646387235.6,286047002.9,N
1646387255.5,286047003.3,N
1646387275.3,286047003.1,N
1646387295.1,286047003.4,N
1646387315.9,286047003.0,N
1646387335.7,286047003.7,N
1646387355.6,286047003.6,N
1646387375.4,286047003.6,N
1646387395.2,286047001.7,N
1646387415.1,286046999.7,N
1646387416.0,286046999.7,N
1646387435.8,286046999.8,N
1646387455.7,286047001.9,N
1646387475.5,286047002.6,N
1646387495.3,286047000.5,N
1646387515.2,286047002.7,N
1646387535.0,286047002.6,N
1646387535.9,286047002.6,N
1646387555.8,286047001.7,N
1646387575.6,286047001.6,N
1646387595.4,286047004.0,Y
1646387615.3,286047002.0,P
1646387635.1,286047000.9,P
1646387655.8,286047000.4,N
1646387675.7,286047000.3,N
1646387695.5,286047000.0,N
1646387715.4,286047000.1,N
1646387735.2,286047002.5,N
1646387755.0,286047002.3,N
1646387755.9,286047002.3,N
1646387775.8,286046999.7,N
1646387795.6,286046999.7,N
1646387815.4,286047001.1,N
1646387835.3,286047000.4,N
1646387855.1,286046998.3,N
1646387875.9,286046999.0,N
1646387895.7,286046998.8,N
1646387915.5,286046998.4,N
1646387935.4,286046998.9,N
1646387955.2,286047000.4,N
1646387975.0,286047001.6,N
1646387976.0,286047001.6,N
1646387995.8,286047001.5,N
